Location: ??
(34.9605°N, 135.6092°E)
Time: 09:25:35
(UTC+00:00)

Daily predictions for brighter satellites

Satellite Brightness Start Highest point End
(mag) Time Altitude Azimuth Time Altitude Azimuth Time Altitude Azimuth
STARLINK-1091 4.2 12:00:57 10° NW 12:04:58 49° NE 12:05:52 41° E
MetOp-B 4.1 12:05:15 33° S 12:07:45 83° WSW 12:13:07 10° NNW
STARLINK-1072 3.9 12:05:55 10° NW 12:09:58 54° NE 12:10:39 47° E
STARLINK-1096 3.8 12:10:52 10° NW 12:14:58 60° NE 12:15:27 55° ENE
Cosmos 1741 Rocket 3.9 12:11:20 10° NNW 12:16:34 86° ENE 12:18:00 49° SSE
USA 245 3.3 12:19:45 54° NW 12:19:45 54° NW 12:22:01 10° NNW
STARLINK-1079 3.6 12:15:49 10° NW 12:19:57 67° NE 12:20:13 65° ENE
NOSS 2-2 (D) 4.2 12:18:06 10° SW 12:21:31 43° NW 12:25:04 10° NNE
ASTRO E2 3.7 12:18:54 10° WSW 12:21:31 35° SW 12:21:31 35° SW
Resurs 01 Rocket 3.3 12:20:25 18° SW 12:22:50 28° W 12:26:40 10° NW
Cosmos 1110 Rocket 4.2 12:19:28 18° SSW 12:23:15 67° WNW 12:28:25 10° NNE
SPOT 1/Viking Rocket 3.4 12:22:08 53° SSE 12:23:23 80° ENE 12:28:34 10° N
Okean 2 4.4 12:25:34 34° ENE 12:25:34 34° ENE 12:28:28 10° NNE
Spot 2 Rocket 3.6 12:23:07 43° S 12:24:42 69° WSW 12:29:44 10° NNW
STARLINK-1116 3.5 12:20:47 10° NW 12:24:56 75° NE 12:25:00 75° ENE
Cosmos 1850 Rocket 4.1 12:21:03 10° NNW 12:26:23 73° WSW 12:27:49 48° S
Terra 2.6 12:29:57 37° ENE 12:30:02 37° ENE 12:34:24 10° N
Okean 1 Rocket 2.9 12:27:18 10° N 12:31:47 84° E 12:31:54 82° ESE
Cosmos 1092 Rocket 3.9 12:32:27 51° SSE 12:33:50 66° E 12:39:56 10° NNE
STARLINK-1094 3.6 12:30:44 10° NW 12:34:34 76° NW 12:34:34 76° NW
NOSS 3-4 (A) 4.3 12:39:46 31° E 12:39:46 31° E 12:43:43 10° NE
NOSS 3-4 (C) 4.3 12:39:55 31° E 12:39:55 31° E 12:43:48 10° NE
STARLINK-1117 3.8 12:35:42 10° NW 12:39:21 66° WNW 12:39:21 66° WNW
Cosmos 1805 4.0 12:37:46 10° N 12:40:44 46° NNE 12:40:44 46° NNE
CARTOSAT-1 3.5 12:42:16 78° NNE 12:42:16 78° NNE 12:46:21 10° N
STARLINK-1078 4.1 12:40:42 10° NW 12:44:08 57° WNW 12:44:08 57° WNW
GPS 2-04 Rocket1 4.2 12:43:02 10° W 12:44:50 28° W 12:44:50 28° W
Cosmos 1627 Rocket 4.5 12:46:44 58° SE 12:47:42 66° E 12:54:01 10° NNE
SL-4 R/B 2.5 12:43:23 10° SW 12:48:04 72° NW 12:52:55 10° NE
Cosmos 2195 Rocket 4.4 12:48:05 59° SSE 12:49:18 76° E 12:55:35 10° N
STARLINK-1108 4.3 12:45:42 10° NW 12:48:56 48° W 12:48:56 48° W
Cosmos 1302 Rocket 3.9 12:49:26 67° SSW 12:50:10 85° WNW 12:55:30 10° NNE
BREEZE-M DEB (TANK) 3.6 12:37:54 10° SW 12:51:23 54° SE 12:51:23 54° SE
Cosmos 1428 Rocket 4.4 12:54:10 61° SE 12:54:48 65° E 13:01:01 10° NNE
ATLAS 2AS CENTAUR R/B 2.9 13:03:57 52° S 13:05:55 70° ESE 13:13:53 10° NE
Lacrosse 5 3.2 13:02:14 10° WNW 13:06:07 28° WSW 13:06:07 28° WSW
Cosmos 1943 Rocket 2.8 13:04:41 32° WSW 13:06:58 51° WNW 13:12:24 10° N
NOSS 3-2 (A) 4.2 13:08:22 10° NNW 13:16:09 67° ENE 13:18:17 51° ESE
Cosmos 2082 Rocket 4.0 13:13:16 10° NW 13:17:21 20° W 13:18:35 19° WSW
Cosmos 2026 Rocket 4.0 13:17:47 62° SW 13:18:44 73° W 13:25:05 10° N
Cosmos 2369 Rocket 2.7 13:20:32 46° WSW 13:21:45 56° WNW 13:27:19 10° NNE
SeaSat 1 3.3 13:22:30 10° NNE 13:25:45 41° NE 13:25:45 41° NE
USA 238 DEB 3.8 13:20:21 10° NNW 13:27:40 76° ENE 13:28:43 65° ESE
USA 238 3.8 13:20:27 10° NNW 13:27:46 75° ENE 13:28:50 65° ESE
Cosmos 1553 Rocket 4.1 13:22:30 10° N 13:28:28 60° ENE 13:28:28 60° ENE
ATLAS 5 CENTAUR R/B 4.3 13:19:24 10° SW 13:31:29 15° NNE 13:31:56 10° NNE
Cosmos 1655 Rocket 4.2 13:30:26 55° ENE 13:30:26 55° ENE 13:36:00 10° NNE
Milstar 3 Cent rocket 4.4 13:21:33 10° WSW 13:31:50 61° SSE 13:54:35 10° E
SPOT 5 4.4 13:37:23 30° W 13:37:23 30° W 13:42:00 10° NW
Cosmos 1656 Rocket 3.8 13:38:13 68° N 13:38:13 68° N 13:43:05 10° NNE
Thor Agena Rocket 3.9 13:39:49 10° N 13:44:15 62° N 13:44:15 62° N
Cosmos 2266 Rocket 4.3 13:50:56 53° ENE 13:50:56 53° ENE 13:55:58 10° NNE
ATLAS CENTAUR R/B 3.4 13:58:59 26° N 13:58:59 26° N 14:00:56 10° NNE
Cosmos 968 Rocket 4.2 13:53:47 10° NNW 13:57:31 49° NNW 13:57:31 49° NNW
Terra 4.0 14:08:50 17° WNW 14:08:50 17° WNW 14:11:09 10° NW
ATLAS 3B CENTAUR R/B 4.2 14:03:26 10° W 14:08:20 25° WSW 14:08:20 25° WSW
COSMOS 2455 3.2 14:17:24 59° NW 14:17:24 59° NW 14:23:01 10° NNE
CENTAUR R/B 3.1 14:13:15 10° NNW 14:21:40 88° WSW 14:22:31 76° SSE
ATLAS 3B R/B 3.3 14:17:36 10° NNW 14:24:11 47° NE 14:25:05 44° ENE
BREEZE-M R/B 4.1 14:14:00 10° SW 14:25:16 77° N 14:29:45 10° NE
NOSS 3-2 (C) 4.0 14:17:45 10° NW 14:25:39 74° WSW 14:25:56 73° SW
Meteor 2-5 Rocket 4.4 14:41:54 48° NNE 14:41:54 48° NNE 14:45:56 10° NNE
Cosmos 2315 Rocket 4.2 14:47:32 10° N 14:52:45 64° NNW 14:52:45 64° NNW
Cosmos 2098 Rocket 4.5 14:57:52 60° WNW 14:57:52 60° WNW 15:05:09 10° N
Cosmos 2227 Rocket 4.0 15:08:57 10° N 15:13:27 24° ENE 15:14:38 22° ENE
FALCON 9 R/B 2.9 15:25:21 69° E 15:25:21 69° E 15:38:19 10° E
CZ-4C R/B 3.1 15:35:42 38° NE 15:35:42 38° NE 15:39:13 10° NE
ATLAS CENTAUR R/B 4.4 15:38:49 10° N 15:41:24 20° NE 15:45:51 10° E
USA 215 3.1 15:43:44 83° WNW 15:43:44 83° WNW 15:50:01 10° NW
Cosmos 1763 Rocket 4.5 15:45:29 42° NE 15:45:29 42° NE 15:48:58 10° NNE
Cosmos 2369 4.2 15:56:01 54° ENE 15:56:01 54° ENE 16:00:37 10° NNE
Cosmos 1745 Rocket 4.2 15:56:55 62° NW 15:56:55 62° NW 16:02:24 10° N
Cosmos 1980 Rocket 3.3 15:58:24 33° E 15:58:24 33° E 16:02:45 10° NE
Resurs 1-4 Rocket 3.1 15:57:22 10° NNE 16:01:45 38° E 16:01:45 38° E
ATLAS 3B R/B 4.0 16:08:42 10° NW 16:12:18 25° WNW 16:12:18 25° WNW
CZ-2D R/B 2.7 16:10:00 10° NNE 16:14:34 49° E 16:14:34 49° E
Cosmos 2219 3.7 16:10:32 10° NNW 16:14:46 50° NW 16:14:46 50° NW
SL-16 R/B 3.1 16:18:57 41° ESE 16:20:39 52° ENE 16:26:37 10° N
Cosmos 2297 Rocket 2.4 16:15:16 10° NNW 16:19:57 61° NW 16:19:57 61° NW
SJ 16-02 2.7 16:16:48 10° NNW 16:19:22 34° NNW 16:19:22 34° NNW
Cosmos 2181 Rocket 4.4 16:19:09 10° N 16:25:30 59° E 16:26:56 48° SE
GP-B 4.2 16:21:40 10° NNE 16:25:11 40° ENE 16:25:11 40° ENE
IRAS Rocket 4.5 16:29:19 58° WNW 16:29:19 58° WNW 16:34:02 10° NNW
Cosmos 2082 4.1 16:25:01 10° NNW 16:30:36 59° ENE 16:31:35 51° ESE
Meteor 2-10 Rocket 3.7 16:25:55 10° N 16:30:11 61° NNW 16:30:11 61° NNW
Cosmos 2322 Rocket 4.4 16:31:26 13° ESE 16:33:07 14° E 16:36:03 10° ENE
Cosmos 2278 3.6 16:33:56 85° N 16:33:56 85° N 16:39:27 10° NNE
Cosmos 540 Rocket 3.5 16:35:40 72° NNE 16:35:40 72° NNE 16:40:17 10° NNE
Cosmos 1953 Rocket 4.2 16:37:29 54° NNE 16:37:29 54° NNE 16:40:57 10° N
VEP-3 4.4 16:33:34 43° SW 16:36:53 51° S 17:57:23 10° ESE
VEP-3 4.4 16:33:34 43° SW 16:36:54 51° S 17:57:23 10° ESE
Cosmos 1937 Rocket 3.6 16:31:52 10° NNW 16:37:08 72° ENE 16:37:11 72° ENE
Cosmos 1898 Rocket 3.7 16:32:07 10° NNW 16:36:39 64° NW 16:36:39 64° NW
Cosmos 1400 Rocket 4.2 16:38:32 10° NNE 16:42:18 34° ENE 16:42:18 34° ENE
AQUA 4.0 16:40:50 10° NNE 16:45:18 67° ENE 16:45:18 67° ENE
Cosmos 1709 Rocket 4.3 16:45:34 47° W 16:45:38 47° W 16:51:32 10° N
Cosmos 1697 Rocket 3.3 16:45:54 43° WNW 16:46:03 43° WNW 16:51:26 10° N
Lacrosse 4 Rocket 2.2 16:43:03 10° NNW 16:46:44 50° NE 16:46:44 50° NE
NPP 3.5 16:43:22 10° NNE 16:48:47 87° WNW 16:48:57 84° SW
CZ-4B R/B 3.5 16:43:55 10° NNE 16:49:11 81° ESE 16:49:22 79° SE
BREEZE-M DEB (TANK) 4.2 16:45:03 10° WNW 16:49:26 70° SW 17:03:19 10° SE
Cosmos 1814 Rocket 4.1 16:52:43 67° WNW 16:52:43 67° WNW 16:58:00 10° NNE
Cosmos 1455 4.3 16:52:04 10° NNW 16:53:19 19° NNW 16:53:19 19° NNW
Cosmos 2227 Rocket 3.0 16:52:19 10° NW 16:56:24 37° WNW 16:56:24 37° WNW
Cosmos 2285 Rocket 3.9 16:52:43 10° NNW 16:59:06 87° WSW 17:00:50 51° SSE
CZ-4C R/B 4.5 17:01:44 39° NW 17:01:44 39° NW 17:04:43 10° NNW
SL-16 R/B 3.3 17:02:39 30° SE 17:04:21 36° ESE 17:09:29 10° NE
Cosmos-2242 4.1 17:02:25 10° NNW 17:05:13 35° NW 17:05:13 35° NW
Cosmos 372 Rocket 4.5 17:01:29 10° N 17:06:33 57° ENE 17:09:01 29° SE
STARLINK-1292 4.5 17:08:56 39° NNE 17:08:56 39° NNE 17:11:26 10° NE
Cosmos 2221 4.2 17:05:08 10° NNE 17:08:59 30° ENE 17:11:14 19° SE
STARLINK-1274 4.4 17:11:25 40° N 17:11:25 40° N 17:13:59 10° NE
Cosmos 489 Rocket 4.4 17:10:06 55° SW 17:11:22 70° WNW 17:17:36 10° NNE
CRYOSAT 2 4.3 17:06:46 10° N 17:11:41 81° E 17:12:20 66° SSE
Meteor 1-11 4.2 17:12:04 57° WSW 17:12:44 62° W 17:18:16 10° N
STARLINK-1289 4.4 17:13:52 40° N 17:13:52 40° N 17:16:32 10° NE
Cosmos 841 Rocket 4.4 17:12:56 35° WNW 17:13:13 35° WNW 17:17:59 10° N
BREEZE-M DEB (TANK) 4.4 17:12:42 10° NNW 17:14:06 15° NNE 17:15:30 10° ENE
STARLINK-1303 4.3 17:16:22 40° N 17:16:22 40° N 17:19:07 10° NE
STARLINK-64 4.3 17:17:36 41° E 17:17:36 41° E 17:20:15 10° NE
NOSS 2-1 (E) 4.1 17:17:26 38° E 17:17:26 38° E 17:20:05 10° NE
STARLINK-1312 4.4 17:17:48 39° N 17:17:48 39° N 17:20:31 10° NNE
Uosat 12 SS-18 rocket 4.3 17:13:25 10° NNW 17:17:45 70° ENE 17:20:33 24° SE
UNK 4.5 17:21:11 37° WNW 17:21:11 37° WNW 17:24:41 10° NNW
STARLINK-1299 4.3 17:20:28 45° SE 17:20:28 45° SE 17:24:25 10° ENE
STARLINK-1283 4.4 17:20:55 39° NW 17:20:55 39° NW 17:24:38 10° NNE
ADEOS II 2.0 17:16:41 10° NNE 17:21:58 83° ESE 17:23:21 51° S
STARLINK-1243 4.4 17:18:47 10° NW 17:22:50 52° NE 17:26:52 10° ESE
CZ-4C R/B 4.0 17:20:52 14° WNW 17:22:58 17° NW 17:26:42 10° N
STARLINK-1317 4.4 17:24:26 37° NW 17:24:26 37° NW 17:27:46 10° NNE
Meteor 2-17 Rocket 4.4 17:23:59 43° S 17:26:10 87° W 17:32:20 10° N
STARLINK-1305 4.4 17:26:19 40° SE 17:26:20 40° SE 17:30:13 10° ENE
Gblst 52 Del rocket 4.5 17:25:10 45° SW 17:27:20 88° NW 17:34:33 10° NE
STARLINK-1236 4.2 17:23:43 10° NW 17:27:48 57° NE 17:31:53 10° ESE
Cosmos 2074 Rocket 4.2 17:28:32 43° SW 17:30:15 56° W 17:36:26 10° N
STARLINK-1262 4.2 17:31:06 44° SE 17:31:18 45° SE 17:35:16 10° ENE
Cosmos 2360 Rocket 3.9 17:30:24 13° SSE 17:34:11 26° ESE 17:38:45 10° NE
IDEFIX/ARIANE 42P 4.0 17:30:36 10° NE 17:35:17 32° E 17:39:16 13° SSE
ERS-2 4.1 17:33:05 10° SE 17:36:15 28° ENE 17:39:26 10° N
STARLINK-1300 4.0 17:35:54 48° SSE 17:36:16 50° SE 17:40:17 10° NE
CBERS-1 4.3 17:31:51 10° N 17:36:49 52° WNW 17:37:57 43° WSW
STARLINK-1269 3.8 17:33:38 10° NW 17:37:47 71° NE 17:41:54 10° SE
STARLINK-1295 3.8 17:40:39 51° SSE 17:41:12 57° SE 17:45:16 10° NE
Cosmos 1980 Rocket 3.4 17:40:10 25° W 17:41:41 28° WNW 17:46:28 10° N
Resurs 1-4 Rocket 3.5 17:37:49 10° NNW 17:41:50 23° WNW 17:42:50 21° W
STARLINK-1200 3.6 17:38:35 10° NW 17:42:44 79° NE 17:46:52 10° SE
STARLINK-1287 3.7 17:45:27 52° S 17:46:11 64° SE 17:50:17 10° NE
STARLINK-1192 3.5 17:43:35 10° NW 17:47:44 88° NE 17:51:52 10° SE
BREEZE M DEB (TANK) 3.5 17:46:00 10° NW 17:49:05 82° NE 17:58:54 10° SE
IRIDIUM 106 4.2 17:46:52 32° S 17:49:21 86° W 17:54:36 10° N
GEOS 3 Rocket 4.0 17:48:48 38° SW 17:49:30 40° WSW 17:54:24 10° NW
IRS-P3 4.3 17:45:19 10° N 17:50:32 57° WNW 17:52:32 36° SW
Skynet4D Del rocket 4.3 17:51:25 34° SSW 17:52:36 37° S 17:57:47 10° ESE
STARLINK-1278 3.6 17:51:33 49° SW 17:52:38 89° NW 17:56:55 10° NE
STARLINK-1244 3.4 17:48:33 10° NW 17:52:42 83° SW 17:56:49 10° SE
H-2A R/B 3.4 17:49:13 10° SE 17:53:17 41° ENE 17:57:27 10° N
STARLINK-1280 3.6 17:53:19 47° SW 17:54:28 86° NW 17:58:45 10° NE
CZ-2D R/B 3.8 17:51:22 10° NNW 17:54:40 17° WNW 17:55:53 16° W
STARLINK-1302 3.5 17:55:01 47° SSW 17:56:08 81° SE 18:00:16 10° NE
Cosmos 1825 3.6 17:54:57 15° SSE 17:57:36 34° E 18:01:01 10° NNE
STARLINK-1138 3.4 17:53:32 10° NW 17:57:40 74° SW 18:01:47 10° SE
Iridium 2 4.1 17:54:41 10° NNW 17:58:15 41° W 17:58:27 41° W
STARLINK-1273 3.5 17:59:47 43° SW 18:01:05 89° E 18:05:14 10° NE
COBE Rocket 3.9 17:57:23 14° SSE 18:01:44 87° ENE 18:06:51 10° N
ERBS 2.2 17:58:48 10° NW 18:02:09 86° NE 18:05:30 10° SE
STARLINK-48 4.4 18:01:02 29° W 18:02:19 38° NW 18:05:59 10° NNE
STARLINK-1143 3.5 17:58:30 10° NW 18:02:37 66° SW 18:06:43 10° SE
SL-16 R/B 3.7 18:04:02 21° W 18:04:29 21° W 18:08:58 10° NW
STARLINK-1288 3.5 18:04:34 38° SW 18:06:05 82° NW 18:10:13 10° NE
Timation 1 Rocket 4.3 18:01:19 10° NNW 18:07:11 61° WSW 18:13:01 10° S
STARLINK-1241 3.6 18:03:33 10° NW 18:07:37 59° SW 18:11:41 10° SSE
Cosmos 2263 Rocket 2.1 18:04:04 10° NNW 18:09:41 88° WSW 18:15:14 10° SSE
STARLINK-1308 3.6 18:09:24 34° WSW 18:11:05 72° NW 18:15:14 10° NE
Cosmos 1869 3.4 18:07:22 10° NNW 18:11:06 48° W 18:12:23 33° SW
CZ-4C R/B 3.9 18:07:47 10° SSE 18:11:17 51° ENE 18:14:50 10° N
Cosmos 2058 3.3 18:10:27 32° SW 18:11:52 46° W 18:15:56 10° N
STARLINK-1239 3.7 18:08:32 10° NW 18:12:34 52° SW 18:16:35 10° SSE
SL-8 Rocket 4.2 18:06:52 11° S 18:12:51 76° E 18:19:09 10° N
NOSS 2-1 (C) 4.2 18:12:04 25° W 18:12:58 28° NW 18:16:01 10° N
USA 229 DEB 4.3 18:07:21 10° NNW 18:14:42 67° ENE 18:22:20 10° SE
USA 229 4.4 18:07:27 10° NNW 18:14:48 66° ENE 18:22:24 10° SE
CZ-2D R/B 3.5 18:10:45 10° N 18:14:56 67° WNW 18:17:20 25° SSW
Cosmos 1076 Rocket 3.9 18:13:18 30° SW 18:15:05 47° W 18:19:19 10° N
Cosmos 2322 Rocket 2.3 18:13:16 25° SW 18:16:32 62° WNW 18:22:06 10° NNE
ARIANE 5 R/B 2.9 18:11:56 10° N 18:16:43 46° WNW 18:19:23 24° SW
NOSS 2-1 (D) 4.4 18:16:26 21° W 18:17:29 25° NW 18:20:24 10° N
STARLINK-1240 3.8 18:13:32 10° WNW 18:17:31 46° SW 18:21:28 10° SSE
NOSS 3-1 (C) 4.4 18:11:04 10° NNW 18:18:59 78° ENE 18:27:51 10° SE
CZ-4B R/B 4.5 18:17:36 10° E 18:19:06 13° ENE 18:20:36 10° NE
CZ-2C R/B 2.7 18:16:04 10° NNE 18:19:50 86° ESE 18:22:23 20° S
STARLINK-1304 3.9 18:18:54 27° WSW 18:20:59 59° NW 18:25:05 10° NE
STARLINK-1203 4.0 18:18:00 10° WNW 18:21:58 42° SW 18:25:55 10° SSE
STARLINK-1216 3.9 18:18:33 10° WNW 18:22:28 41° SW 18:26:21 10° SSE
ATLAS CENTAUR R/B 4.2 18:19:35 10° WNW 18:24:01 27° SW 18:33:05 10° S
Cosmos 2237 4.2 18:22:47 16° SSW 18:27:22 85° ESE 18:33:07 10° NNE
STARLINK-1237 4.1 18:23:36 10° WNW 18:27:25 37° SW 18:31:13 10° SSE
STARLINK-1286 4.2 18:26:36 21° WSW 18:29:03 48° NW 18:33:06 10° NE
Cosmos 1408 2.9 18:28:16 24° SW 18:30:10 46° W 18:33:44 10° N
Helios 1B 4.5 18:26:09 10° S 18:30:27 76° WSW 18:34:48 10° NNW
Meteor 1-28 Rocket 3.6 18:29:14 19° SSW 18:31:32 41° W 18:35:06 10° NNW
STARLINK-1202 4.2 18:28:39 10° WNW 18:32:22 33° SW 18:36:05 10° SSE
Cosmos 2151 2.9 18:29:35 15° SSW 18:33:07 76° W 18:37:25 10° N
STARLINK-24 4.1 18:34:40 17° SSW 18:37:32 49° SE 18:41:25 10° NE
STARLINK-54 3.9 18:37:18 17° SSW 18:39:50 49° SE 18:43:21 10° ENE
STARLINK-1281 4.5 18:38:01 16° WSW 18:40:56 39° NW 18:44:51 10° NNE
COSMOS 2428 4.4 18:36:32 10° SSE 18:41:24 30° ESE 18:46:16 10° NE
STARLINK-81 4.1 18:38:39 15° SSW 18:41:28 46° SE 18:45:06 10° ENE
Cosmos 1606 4.2 18:38:50 10° N 18:42:22 38° E 18:45:54 10° SSE
Cosmos 1892 4.4 18:42:17 15° WSW 18:43:42 18° WNW 18:46:23 10° NNW
STARLINK-77 4.0 18:41:47 15° SSW 18:44:44 50° SE 18:48:24 10° NE
Cosmos 2221 4.1 18:43:21 10° NW 18:46:16 18° W 18:48:02 14° WSW
STARLINK-79 3.8 18:44:12 15° SSW 18:47:04 52° SE 18:50:37 10° NE
Cosmos 1315 Rocket 4.4 18:44:35 10° NW 18:47:12 17° W 18:48:40 15° WSW
Cosmos 1339 Rocket 4.4 18:41:39 10° N 18:47:44 81° W 18:53:54 10° S
SL-16 R/B 3.4 18:44:32 14° WSW 18:48:27 27° WNW 18:53:15 10° N
Shenzhou-11 Module 3.9 18:46:38 10° WNW 18:48:29 18° NNW 18:50:19 10° NE
Cosmos 1125 Rocket 4.2 18:44:30 10° NW 18:49:05 32° W 18:53:40 10° SSW
STARLINK-50 3.8 18:47:12 14° SSW 18:50:31 61° SE 18:54:25 10° NE
STARLINK-78 3.7 18:48:06 14° SSW 18:51:16 60° SE 18:55:00 10° NE
STARLINK-57 3.5 18:49:49 14° SW 18:53:01 68° SE 18:56:46 10° NE
STARLINK-1028 4.3 18:49:26 11° SSW 18:53:13 48° SE 18:57:13 10° ENE
STARLINK-49 3.6 18:52:13 13° SW 18:55:35 68° SE 18:59:22 10° NE
Cosmos 1538 Rocket 4.1 18:51:56 10° SSW 18:57:15 88° ESE 19:02:40 10° NNE
STARLINK-27 3.5 18:53:52 12° SW 18:57:17 71° SE 19:01:06 10° NE
STARLINK-74 3.5 18:54:24 12° SW 18:57:48 71° SE 19:01:35 10° NE
STARLINK-1021 4.1 18:54:13 10° SSW 18:58:11 54° SE 19:02:14 10° NE
ADEOS II 4.2 18:59:46 10° NW 19:00:53 11° WNW 19:02:01 10° WNW
STARLINK-39 3.5 18:57:29 11° SW 19:01:03 78° SE 19:04:52 10° NE
Cosmos 2366 rocket 4.2 18:55:03 10° SSW 19:01:05 54° W 19:07:13 10° N
STARLINK-31 3.4 18:57:35 12° SW 19:01:06 79° SE 19:04:53 10° NE
PSLV R/B 3.5 18:57:03 10° N 19:01:15 73° WNW 19:05:24 10° SSW
STARLINK-69 3.3 18:58:06 12° SW 19:01:30 88° SE 19:05:12 10° NE
STARLINK-1019 4.0 18:59:04 10° SSW 19:03:09 61° SE 19:07:14 10° NE
CZ-2C R/B 2.7 18:58:21 10° NNE 19:03:34 80° ESE 19:08:43 10° S
MSX 4.1 18:58:57 10° N 19:04:32 53° WNW 19:10:04 10° SSW
STARLINK-21 3.4 19:01:41 11° SW 19:05:24 89° SE 19:09:13 10° NE
Cosmos 1844 Rocket 3.6 19:01:09 10° NNW 19:06:38 54° ENE 19:12:04 10° SE
STARLINK-45 3.4 19:03:03 10° SW 19:06:46 79° NW 19:10:36 10° NE
STARLINK-76 3.3 19:03:36 10° SW 19:07:15 87° NW 19:10:57 10° NE
STARLINK-70 3.4 19:04:02 10° SW 19:07:46 81° NW 19:11:34 10° NE
STARLINK-1012 3.8 19:04:00 10° SW 19:08:06 69° SE 19:12:13 10° NE
STARLINK-23 3.3 19:04:40 10° SW 19:08:19 85° NW 19:12:00 10° NE
ERS-2 4.0 19:07:50 10° SW 19:09:48 14° W 19:11:48 10° WNW
STARLINK-32 3.3 19:06:35 10° SW 19:10:15 81° NW 19:13:56 10° NE
Okean 3 Rocket 4.4 19:07:55 10° SW 19:12:01 34° WNW 19:16:10 10° NNW
STARLINK-25 3.3 19:09:22 10° SW 19:12:58 75° NW 19:16:37 10° NE
Cosmos 2333 Rocket 2.5 19:07:33 10° SSW 19:13:09 72° ESE 19:18:47 10° NNE
SWARM A 4.2 19:10:39 10° N 19:13:59 87° W 19:17:18 10° S
Cosmos 1408 Rocket 3.5 19:10:04 10° SSW 19:14:21 67° W 19:18:39 10° N
IDEFIX/ARIANE 42P 3.7 19:10:22 10° NNW 19:14:42 27° WNW 19:19:01 10° SW
STARLINK-44 3.4 19:11:04 10° SW 19:14:44 72° NW 19:18:25 10° NE
STARLINK-40 3.5 19:11:01 10° SW 19:14:49 73° NW 19:18:37 10° NE
Cosmos 2098 4.3 19:12:26 10° SSW 19:15:22 62° W 19:18:39 10° N
PAYLOAD A 4.0 19:12:36 10° N 19:17:15 61° WNW 19:22:00 10° SSW
STARLINK-37 3.6 19:13:56 10° SW 19:17:39 62° NW 19:21:24 10° NE
Cosmos 2360 Rocket 3.0 19:12:48 10° SW 19:17:56 36° WNW 19:23:06 10° N
STARLINK-1026 3.7 19:13:56 10° SW 19:18:04 86° SE 19:22:13 10° NE
STARLINK-36 3.5 19:15:22 10° SW 19:19:06 65° NW 19:22:51 10° NE
Cosmos 1821 Rocket 4.2 19:16:19 10° S 19:22:42 87° E 19:29:03 10° N
CZ-3 R/B 3.4 19:17:55 10° WSW 19:44:45 56° S 19:51:44 10° E
